User: anonymous   Login
Location: Buckeye Ditch
(40.9104°N, 122.9517°W)
Time: 05:40:01
(UTC+00:00)
Language:

Cosmos 1484 Rocket - Orbit

View from above orbital plane
View from above orbital plane
View from above satellite
View from above satellite

Ground track
Ground track

The orbit data is extracted from the following two-line orbital elements,

1 14208U 83075B   24174.84179936  .00005866  00000-0  25960-3 0  9993
2 14208  97.5687 154.1715 0029049 279.2102  80.5848 15.21684989234881
Epoch (UTC): 22 June 2024 20:12:11
Eccentricity: 0.0029049
inclination: 97.5687°
perigee height: 481 km
apogee height: 521 km
right ascension of ascending node: 154.1715°
argument of perigee: 279.2102°
revolutions per day: 15.21684989
mean anomaly at epoch: 80.5848°
orbit number at epoch: 23488

The dashed part of the orbit path shows where the satellite is in the earth's shadow,  

DLR